Location: Newark
(39.0083°N, 20.7336°E)
Time: 09:42:33
(UTC+00:00)

N. Korean satellite - Visible Passes

Search period start: 17 September 2021 00:00
Search period end: 27 September 2021 00:00
Orbit: 448 x 499 km, 97.3° (Epoch: 16 September)

Date Brightness Start Highest point End Pass type
(mag) Time Alt. Az. Time Alt. Az. Time Alt. Az.
18 Sep 7.3 03:41:44 10° NNE 03:45:11 56° E 03:48:40 10° S visible
19 Sep 9.1 03:14:30 10° NE 03:17:23 23° E 03:20:17 10° SSE visible
20 Sep 10.1 02:48:47 10° E 02:49:29 10° E 02:50:11 10° ESE visible
21 Sep 6.7 03:51:40 10° NNE 03:55:12 81° ESE 03:58:46 10° S visible
22 Sep 8.5 03:24:12 10° NNE 03:27:25 32° E 03:30:39 10° SSE visible
23 Sep 9.8 02:57:31 10° ENE 02:59:32 14° E 03:01:32 10° SE visible
25 Sep 7.9 03:33:57 10° NNE 03:37:22 44° E 03:40:49 10° S visible
26 Sep 9.5 03:06:51 10° NE 03:09:30 19° E 03:12:09 10° SE visible
